DLH77G EDDN-EDDF

Flight info

Callsign DLH77G
Flight time 0h 36m
Altitude 24000
Route SUKAD1G/28 SUKAD DCT PIWAW T159 SPESA SPESA4C
Aircraft A332/H-SDE3GHIJ2J3J5M1RVWXY/LB2D1

Departure

Time 2026-04-14 15:42
Airport Nuremberg Airport (EDDN)

Arrival

Time 2026-04-14 16:19
Airport Frankfurt Main Airport (EDDF)
Time Latitude Longitude Altitude Speed Heading
2026-04-14 15:21 49.49514 11.07858 1029 ft 0 kts 188°
2026-04-14 15:32 49.49522 11.07860 1030 ft 3 kts 188°
2026-04-14 15:32 49.49540 11.07864 1033 ft 3 kts 188°
2026-04-14 15:33 49.49558 11.07864 1033 ft 3 kts 149°
2026-04-14 15:33 49.49573 11.07848 1033 ft 3 kts 118°
2026-04-14 15:33 49.49579 11.07821 1034 ft 3 kts 99°
2026-04-14 15:33 49.49580 11.07805 1033 ft 0 kts 99°
2026-04-14 15:37 49.49579 11.07817 1034 ft 4 kts 99°
2026-04-14 15:37 49.49572 11.07887 1033 ft 10 kts 98°
2026-04-14 15:37 49.49559 11.08026 1031 ft 16 kts 98°
2026-04-14 15:38 49.49546 11.08169 1030 ft 13 kts 99°
2026-04-14 15:38 49.49537 11.08293 1035 ft 11 kts 96°
2026-04-14 15:38 49.49562 11.08344 1036 ft 7 kts 24°
2026-04-14 15:38 49.49607 11.08401 1034 ft 10 kts 70°
2026-04-14 15:39 49.49610 11.08465 1034 ft 0 kts 93°
2026-04-14 15:39 49.49609 11.08468 1035 ft 1 kts 103°
2026-04-14 15:39 49.49600 11.08540 1036 ft 10 kts 102°
2026-04-14 15:39 49.49591 11.08651 1037 ft 19 kts 96°
2026-04-14 15:40 49.49572 11.08896 1041 ft 21 kts 101°
2026-04-14 15:40 49.49549 11.09114 1041 ft 20 kts 97°
2026-04-14 15:40 49.49532 11.09306 1045 ft 17 kts 91°
2026-04-14 15:40 49.49578 11.09441 1046 ft 13 kts 50°
2026-04-14 15:41 49.49649 11.09510 1047 ft 9 kts 10°
2026-04-14 15:41 49.49692 11.09479 1047 ft 8 kts 315°
2026-04-14 15:41 49.49716 11.09362 1046 ft 15 kts 277°
2026-04-14 15:41 49.49729 11.09230 1045 ft 29 kts 278°
2026-04-14 15:42 49.49797 11.08569 1030 ft 94 kts 279°
2026-04-14 15:42 49.49914 11.07301 1090 ft 139 kts 278°
2026-04-14 15:42 49.50021 11.05767 1463 ft 157 kts 275°
2026-04-14 15:42 49.50160 11.03991 1907 ft 174 kts 280°
2026-04-14 15:43 49.50321 11.02091 2428 ft 184 kts 280°
2026-04-14 15:43 49.50490 11.00095 2941 ft 192 kts 281°
2026-04-14 15:43 49.50669 10.98007 3467 ft 202 kts 281°
2026-04-14 15:43 49.50845 10.95788 3928 ft 215 kts 278°
2026-04-14 15:44 49.51010 10.93416 4393 ft 230 kts 279°
2026-04-14 15:44 49.51283 10.90865 4647 ft 254 kts 282°
2026-04-14 15:44 49.51621 10.88128 4851 ft 264 kts 283°
2026-04-14 15:44 49.51969 10.85352 5060 ft 265 kts 283°
2026-04-14 15:45 49.52304 10.82553 5254 ft 266 kts 281°
2026-04-14 15:45 49.52592 10.79737 5458 ft 267 kts 279°
2026-04-14 15:45 49.52866 10.76911 5666 ft 267 kts 280°
2026-04-14 15:45 49.53184 10.74126 5866 ft 267 kts 287°
2026-04-14 15:46 49.53721 10.71372 6079 ft 268 kts 288°
2026-04-14 15:46 49.54317 10.68645 6293 ft 269 kts 290°
2026-04-14 15:46 49.54964 10.65932 6498 ft 270 kts 291°
2026-04-14 15:46 49.55638 10.63214 6703 ft 272 kts 291°
2026-04-14 15:47 49.56312 10.60493 6891 ft 272 kts 291°
2026-04-14 15:47 49.56757 10.58688 7035 ft 272 kts 291°
2026-04-14 15:47 49.57430 10.55952 7223 ft 273 kts 291°
2026-04-14 15:47 49.58103 10.53203 7423 ft 274 kts 291°
2026-04-14 15:48 49.58774 10.50454 7480 ft 275 kts 291°
2026-04-14 15:48 49.59447 10.47694 7231 ft 271 kts 291°
2026-04-14 15:48 49.60093 10.45037 7202 ft 257 kts 291°
2026-04-14 15:48 49.60706 10.42516 7197 ft 244 kts 291°
2026-04-14 15:49 49.61294 10.40091 7201 ft 240 kts 291°
2026-04-14 15:49 49.61868 10.37721 7202 ft 232 kts 292°
2026-04-14 15:49 49.62424 10.35424 7205 ft 230 kts 292°
2026-04-14 15:49 49.62984 10.33110 7205 ft 230 kts 292°
2026-04-14 15:50 49.63544 10.30798 7206 ft 230 kts 292°
2026-04-14 15:50 49.64104 10.28481 7198 ft 230 kts 292°
2026-04-14 15:50 49.64663 10.26166 7201 ft 230 kts 292°
2026-04-14 15:50 49.65223 10.23842 7199 ft 230 kts 292°
2026-04-14 15:51 49.65780 10.21528 7194 ft 230 kts 292°
2026-04-14 15:51 49.66337 10.19210 7198 ft 230 kts 292°
2026-04-14 15:51 49.66894 10.16892 7198 ft 230 kts 292°
2026-04-14 15:51 49.67446 10.14594 7200 ft 230 kts 292°
2026-04-14 15:52 49.68000 10.12280 7188 ft 230 kts 292°
2026-04-14 15:52 49.68556 10.09963 7190 ft 230 kts 292°
2026-04-14 15:52 49.69111 10.07641 7192 ft 230 kts 292°
2026-04-14 15:52 49.69665 10.05320 7189 ft 230 kts 291°
2026-04-14 15:53 49.70220 10.02998 7189 ft 230 kts 291°
2026-04-14 15:53 49.70774 10.00674 7190 ft 231 kts 291°
2026-04-14 15:53 49.71321 9.98376 7190 ft 231 kts 291°
2026-04-14 15:53 49.71875 9.96045 7180 ft 231 kts 292°
2026-04-14 15:54 49.73008 9.91282 7197 ft 257 kts 292°
2026-04-14 15:54 49.73651 9.88584 7191 ft 273 kts 291°
2026-04-14 15:54 49.74310 9.85802 7182 ft 276 kts 291°
2026-04-14 15:55 49.74968 9.83016 7178 ft 276 kts 291°
2026-04-14 15:55 49.75627 9.80221 7182 ft 276 kts 291°
2026-04-14 15:55 49.76284 9.77431 7180 ft 276 kts 291°
2026-04-14 15:55 49.76941 9.74644 7181 ft 276 kts 291°
2026-04-14 15:56 49.77600 9.71843 7180 ft 276 kts 291°
2026-04-14 15:56 49.78255 9.69049 7183 ft 276 kts 291°
2026-04-14 15:56 49.78911 9.66253 7182 ft 276 kts 291°
2026-04-14 15:56 49.79559 9.63492 7184 ft 276 kts 291°
2026-04-14 15:57 49.80212 9.60700 7180 ft 275 kts 291°
2026-04-14 15:57 49.80863 9.57917 7179 ft 275 kts 291°
2026-04-14 15:57 49.81513 9.55133 7183 ft 275 kts 291°
2026-04-14 15:57 49.82167 9.52332 7181 ft 277 kts 291°
2026-04-14 15:58 49.82826 9.49507 7183 ft 281 kts 291°
2026-04-14 15:58 49.83490 9.46650 7180 ft 282 kts 291°
2026-04-14 15:58 49.84156 9.43786 7179 ft 282 kts 291°
2026-04-14 15:58 49.84822 9.40920 7021 ft 282 kts 290°
2026-04-14 15:59 49.85485 9.38057 7175 ft 283 kts 291°
2026-04-14 15:59 49.86127 9.35220 7179 ft 282 kts 290°
2026-04-14 15:59 49.86714 9.32311 7178 ft 282 kts 288°
2026-04-14 15:59 49.87277 9.29399 7184 ft 282 kts 288°
2026-04-14 16:00 49.87834 9.26481 7183 ft 282 kts 288°
2026-04-14 16:00 49.88391 9.23563 7189 ft 282 kts 288°
2026-04-14 16:00 49.88949 9.20639 7184 ft 282 kts 288°
2026-04-14 16:00 49.89505 9.17722 7187 ft 282 kts 288°
2026-04-14 16:01 49.90061 9.14803 7185 ft 282 kts 288°
2026-04-14 16:01 49.90639 9.11766 7189 ft 304 kts 288°
2026-04-14 16:01 49.91246 9.08571 7181 ft 310 kts 288°
2026-04-14 16:01 49.91846 9.05408 7182 ft 309 kts 288°
2026-04-14 16:02 49.92453 9.02215 7185 ft 308 kts 288°
2026-04-14 16:02 49.93061 8.99029 7186 ft 308 kts 288°
2026-04-14 16:02 49.93670 8.95838 7183 ft 308 kts 288°
2026-04-14 16:02 49.94276 8.92656 7181 ft 308 kts 288°
2026-04-14 16:03 49.94885 8.89464 7184 ft 308 kts 288°
2026-04-14 16:03 49.95491 8.86276 7183 ft 308 kts 288°
2026-04-14 16:03 49.96099 8.83076 7182 ft 308 kts 288°
2026-04-14 16:03 49.96692 8.79934 7180 ft 295 kts 288°
2026-04-14 16:04 49.97244 8.76998 7177 ft 278 kts 288°
2026-04-14 16:04 49.97772 8.74189 7177 ft 263 kts 288°
2026-04-14 16:04 49.98136 8.71487 7170 ft 251 kts 270°
2026-04-14 16:04 49.97737 8.68894 7184 ft 246 kts 251°
2026-04-14 16:05 49.97108 8.66411 7182 ft 248 kts 249°
2026-04-14 16:05 49.96459 8.63923 7184 ft 249 kts 250°
2026-04-14 16:05 49.95823 8.61423 7184 ft 249 kts 250°
2026-04-14 16:05 49.95198 8.58914 7185 ft 249 kts 251°
2026-04-14 16:06 49.94582 8.56404 7184 ft 249 kts 251°
2026-04-14 16:06 49.93971 8.53897 7186 ft 248 kts 251°
2026-04-14 16:06 49.93361 8.51383 7184 ft 248 kts 251°
2026-04-14 16:06 49.92753 8.48875 7183 ft 248 kts 251°
2026-04-14 16:07 49.92148 8.46366 7184 ft 248 kts 251°
2026-04-14 16:07 49.91548 8.43883 7057 ft 250 kts 251°
2026-04-14 16:07 49.90936 8.41346 6766 ft 250 kts 251°
2026-04-14 16:07 49.90326 8.38826 6508 ft 248 kts 251°
2026-04-14 16:08 49.89720 8.36320 6242 ft 248 kts 251°
2026-04-14 16:08 49.89115 8.33820 5990 ft 247 kts 251°
2026-04-14 16:08 49.88509 8.31321 5741 ft 247 kts 251°
2026-04-14 16:08 49.87905 8.28830 5476 ft 246 kts 251°
2026-04-14 16:09 49.87302 8.26349 5217 ft 245 kts 251°
2026-04-14 16:09 49.86705 8.23895 5027 ft 242 kts 251°
2026-04-14 16:09 49.86110 8.21454 4996 ft 242 kts 251°
2026-04-14 16:09 49.85517 8.19023 4994 ft 241 kts 251°
2026-04-14 16:10 49.84929 8.16611 4997 ft 241 kts 251°
2026-04-14 16:10 49.84390 8.14175 4999 ft 238 kts 262°
2026-04-14 16:10 49.84477 8.11647 4737 ft 235 kts 291°
2026-04-14 16:10 49.85380 8.09603 4434 ft 229 kts 323°
2026-04-14 16:11 49.86765 8.08458 4163 ft 225 kts 340°
2026-04-14 16:11 49.88242 8.07667 4016 ft 224 kts 343°
2026-04-14 16:11 49.89770 8.07399 3995 ft 222 kts 11°
2026-04-14 16:11 49.91139 8.08375 4005 ft 221 kts 37°
2026-04-14 16:12 49.92296 8.09937 3992 ft 212 kts 43°
2026-04-14 16:12 49.93309 8.11461 3988 ft 199 kts 46°
2026-04-14 16:12 49.94075 8.13169 3988 ft 188 kts 62°
2026-04-14 16:12 49.94391 8.15070 3993 ft 180 kts 86°
2026-04-14 16:13 49.94338 8.17013 4010 ft 181 kts 91°
2026-04-14 16:13 49.94465 8.18937 3999 ft 178 kts 72°
2026-04-14 16:13 49.94855 8.20761 4014 ft 176 kts 67°
2026-04-14 16:13 49.95284 8.22518 4024 ft 172 kts 66°
2026-04-14 16:14 49.95715 8.24255 4001 ft 172 kts 66°
2026-04-14 16:14 49.96140 8.25974 4004 ft 173 kts 66°
2026-04-14 16:14 49.96599 8.27699 3908 ft 173 kts 65°
2026-04-14 16:14 49.97041 8.29434 3681 ft 172 kts 67°
2026-04-14 16:15 49.97456 8.31178 3425 ft 172 kts 68°
2026-04-14 16:15 49.97872 8.32920 3152 ft 172 kts 68°
2026-04-14 16:15 49.98289 8.34662 2895 ft 171 kts 68°
2026-04-14 16:15 49.98562 8.35805 2738 ft 170 kts 68°
2026-04-14 16:16 49.99111 8.38110 2436 ft 168 kts 67°
2026-04-14 16:16 49.99515 8.39803 2199 ft 169 kts 68°
2026-04-14 16:16 49.99928 8.41532 1971 ft 170 kts 68°
2026-04-14 16:16 50.00336 8.43248 1742 ft 166 kts 68°
2026-04-14 16:17 50.00724 8.44877 1513 ft 154 kts 68°
2026-04-14 16:17 50.01071 8.46375 1296 ft 142 kts 68°
2026-04-14 16:17 50.01388 8.47787 1042 ft 136 kts 68°
2026-04-14 16:17 50.01719 8.49153 904 ft 138 kts 66°
2026-04-14 16:18 50.02067 8.50577 735 ft 140 kts 74°
2026-04-14 16:18 50.02408 8.51992 581 ft 142 kts 73°
2026-04-14 16:18 50.02762 8.53461 420 ft 147 kts 74°
2026-04-14 16:18 50.03117 8.54943 355 ft 140 kts 70°
2026-04-14 16:19 50.03396 8.56109 366 ft 87 kts 69°
2026-04-14 16:19 50.03537 8.56702 365 ft 30 kts 69°
2026-04-14 16:19 50.03612 8.56952 369 ft 25 kts 54°
2026-04-14 16:19 50.03737 8.57129 366 ft 23 kts 43°
2026-04-14 16:20 50.03809 8.57219 373 ft 10 kts 36°
2026-04-14 16:20 50.03815 8.57225 373 ft 0 kts 38°
2026-04-14 16:20 50.03827 8.57240 371 ft 6 kts 34°
2026-04-14 16:21 50.03891 8.57323 370 ft 17 kts 40°
2026-04-14 16:21 50.03976 8.57488 365 ft 23 kts 63°
2026-04-14 16:21 50.04040 8.57751 364 ft 26 kts 73°
2026-04-14 16:21 50.04096 8.58004 360 ft 14 kts 69°
2026-04-14 16:22 50.04145 8.58129 362 ft 15 kts 39°
2026-04-14 16:22 50.04238 8.58129 336 ft 12 kts 355°
2026-04-14 16:22 50.04271 8.58138 332 ft 1 kts 26°
2026-04-14 16:22 50.04309 8.58159 331 ft 11 kts 13°
2026-04-14 16:23 50.04392 8.58141 332 ft 11 kts 346°
2026-04-14 16:23 50.04479 8.58092 339 ft 17 kts 340°
2026-04-14 16:23 50.04532 8.57976 354 ft 13 kts 261°
2026-04-14 16:23 50.04498 8.57834 352 ft 15 kts 250°
2026-04-14 16:24 50.04486 8.57779 350 ft 0 kts 250°
2026-04-14 16:27 50.04485 8.57779 350 ft 1 kts 250°
2026-04-14 16:28 50.04468 8.57704 354 ft 14 kts 250°
2026-04-14 16:28 50.04418 8.57494 347 ft 25 kts 250°
2026-04-14 16:28 50.04360 8.57247 356 ft 24 kts 248°
2026-04-14 16:28 50.04302 8.57012 360 ft 23 kts 248°
2026-04-14 16:29 50.04251 8.56785 361 ft 23 kts 251°
2026-04-14 16:29 50.04192 8.56550 358 ft 23 kts 251°
2026-04-14 16:29 50.04151 8.56374 357 ft 17 kts 251°
2026-04-14 16:29 50.04192 8.56277 359 ft 12 kts 328°
2026-04-14 16:30 50.04284 8.56207 361 ft 16 kts 317°
2026-04-14 16:30 50.04322 8.56086 361 ft 13 kts 319°
2026-04-14 16:30 50.04395 8.56036 366 ft 11 kts 355°
2026-04-14 16:30 50.04449 8.56080 365 ft 8 kts 64°
2026-04-14 16:31 50.04468 8.56169 363 ft 9 kts 71°
2026-04-14 16:31 50.04492 8.56277 364 ft 14 kts 71°
2026-04-14 16:31 50.04548 8.56435 363 ft 17 kts 32°
2026-04-14 16:31 50.04627 8.56504 366 ft 2 kts 55°
2026-04-14 16:32 50.04623 8.56517 366 ft 1 kts 118°
2026-04-14 16:32 50.04597 8.56566 364 ft 9 kts 118°